AEROCUBE 8D

Last updated on Sat Sep 12 2026 00:03:48 GMT+0000 (Coordinated Universal Time)

1 41852U 16067E 26253.65552873 .00005508 00000+0 22107-3 0 9991 2 41852 98.0535 130.3367 0003086 171.6651 188.4637 15.25444005539092
UTC large
Height (km)
Speed (km/s)
/
Latitude / Longitude
Inclination (degrees)
Orbital Period (minutes)
Azimuth
Elevation
Range (km)
Doppler Factor

Next 0 passes for location: London (51.5072 / 0.1276)

No passes found over London.
AEROCUBE 8D